La Coruna Airport, Spain

10:18 PM CEST on July 21, 2017 (GMT +0200)
A Coruna

Weather History for LECO - November, 2011

Change the Weather History Date:

Saturday, November 12, 2011

  Actual Average Record
Temperature  
Mean Temperature 62 °F -  
Max Temperature 75 °F 57 °F 75 °F (2011)
Min Temperature 48 °F 45 °F 39 °F (1996)
Degree Days  
Heating Degree Days 4    
Growing Degree Days 12 (Base 50)    
Moisture  
Dew Point 51 °F    
Average Humidity 66    
Maximum Humidity 100    
Minimum Humidity 33    
Precipitation  
Precipitation 0.00 in - - ()
Sea Level Pressure  
Sea Level Pressure 29.84 in    
Wind  
Wind Speed 7 mph ()    
Max Wind Speed 26 mph    
Max Gust Speed 44 mph    
Visibility 6.2 miles    
Events Fog    
Averages and records for this station are not official NWS values.
T = Trace of Precipitation, MM = Missing Value Source: Averaged Metar Reports

Daily Weather History Graph

Daily Weather History Graph

Search for Another Location

Airport or City:

Trip Planner

Search our weather history database for the weather conditions in past years. The results will help you decide how hot, cold, wet, or windy it might be!

Date:

Astronomy

Nov. 12, 2011 Rise Set
Actual Time 8:22 AM CET 6:12 PM CET
Civil Twilight 7:51 AM CET 6:42 PM CET
Nautical Twilight 7:17 AM CET 7:17 PM CET
Astronomical Twilight 6:43 AM CET 7:50 PM CET
Moon 7:14 PM CET (11/12) 9:55 AM CET (11/12)
Length of Visible Light 10h 51m
Length of Day
9h 50m
Full, 98% of the Moon is Illuminated
Nov 12
Full
Nov 18
Last Quarter
Nov 25
New
Dec 2
First Quarter
Dec 10
Full

Hourly Weather History & Observations

Time (CET) Temp. Dew Point Humidity Pressure Visibility Wind Dir Wind Speed Gust Speed Precip Events Conditions
12:00 AM 55.4 °F 53.6 °F 94% 30.01 in 6.2 mi South 5.8 mph - N/A   Partly Cloudy
12:30 AM 55.4 °F 53.6 °F 94% 30.01 in 6.2 mi South 5.8 mph - N/A   Partly Cloudy
1:00 AM 53.6 °F 53.6 °F 100% 30.01 in 6.2 mi South 3.5 mph - N/A   Partly Cloudy
5:30 AM 48.2 °F 48.2 °F 100% 29.98 in 6.2 mi Variable 1.2 mph - N/A   Partly Cloudy
6:00 AM 48.2 °F 48.2 °F 100% 29.98 in 6.2 mi SSE 3.5 mph - N/A Fog Partly Cloudy
6:30 AM 48.2 °F 48.2 °F 100% 29.98 in 6.2 mi SSE 4.6 mph - N/A   Partly Cloudy
7:00 AM 48.2 °F 48.2 °F 100% 29.98 in 6.2 mi SSE 3.5 mph - N/A   Mostly Cloudy
7:30 AM 50.0 °F 50.0 °F 100% 29.98 in 6.2 mi Variable 2.3 mph - N/A   Partly Cloudy
8:00 AM 50.0 °F 50.0 °F 100% 29.95 in 6.2 mi South 4.6 mph - N/A   Partly Cloudy
8:30 AM 50.0 °F 50.0 °F 100% 29.95 in 6.2 mi Variable 1.2 mph - N/A Fog Partly Cloudy
9:00 AM 50.0 °F 50.0 °F 100% 29.95 in 6.2 mi South 3.5 mph - N/A Fog Partly Cloudy
9:30 AM 50.0 °F 50.0 °F 100% 29.95 in 6.2 mi Variable 2.3 mph - N/A Fog Partly Cloudy
10:30 AM 57.2 °F 55.4 °F 94% 29.92 in 6.2 mi Variable 1.2 mph - N/A Fog Partly Cloudy
11:00 AM 59.0 °F 55.4 °F 88% 29.89 in 6.2 mi South 5.8 mph - N/A   Partly Cloudy
11:30 AM 62.6 °F 59.0 °F 88% 29.89 in 6.2 mi South 6.9 mph - N/A   Partly Cloudy
12:00 PM 68.0 °F 59.0 °F 73% 29.86 in 6.2 mi SE 9.2 mph - N/A   Partly Cloudy
12:30 PM 69.8 °F 59.0 °F 68% 29.86 in 6.2 mi SE 8.1 mph - N/A   Partly Cloudy
1:00 PM 71.6 °F 59.0 °F 64% 29.83 in 6.2 mi SSE 5.8 mph - N/A   Partly Cloudy
1:30 PM 73.4 °F 55.4 °F 53% 29.80 in - SSE 11.5 mph 26.5 mph N/A   Clear
2:00 PM 73.4 °F 55.4 °F 53% 29.80 in - SSE 11.5 mph 26.5 mph N/A   Clear
2:30 PM 75.2 °F 53.6 °F 47% 29.80 in - SSE 13.8 mph - N/A   Clear
3:00 PM 75.2 °F 55.4 °F 50% 29.77 in - SSE 11.5 mph - N/A   Clear
3:30 PM 73.4 °F 53.6 °F 50% 29.77 in - SSE 13.8 mph - N/A   Clear
4:00 PM 73.4 °F 51.8 °F 47% 29.77 in - SSE 12.7 mph - N/A   Clear
4:30 PM 71.6 °F 51.8 °F 50% 29.74 in - SSE 11.5 mph - N/A   Clear
5:00 PM 71.6 °F 51.8 °F 50% 29.74 in - SSE 8.1 mph - N/A   Clear
5:30 PM 71.6 °F 50.0 °F 46% 29.74 in - SE 8.1 mph - N/A   Clear
6:00 PM 71.6 °F 50.0 °F 46% 29.74 in - SE 6.9 mph - N/A   Clear
6:30 PM 69.8 °F 50.0 °F 49% 29.74 in - SE 4.6 mph - N/A   Clear
7:00 PM 69.8 °F 50.0 °F 49% 29.74 in - SE 6.9 mph - N/A   Clear
7:30 PM 69.8 °F 46.4 °F 43% 29.71 in - SSE 10.4 mph 21.9 mph N/A   Clear
8:00 PM 73.4 °F 44.6 °F 36% 29.71 in - SSE 23.0 mph 38.0 mph N/A   Clear
8:30 PM 73.4 °F 42.8 °F 33% 29.71 in - SSE 26.5 mph 42.6 mph N/A   Clear
9:00 PM 73.4 °F 42.8 °F 33% 29.71 in - South 25.3 mph 42.6 mph N/A   Clear
9:30 PM 73.4 °F 44.6 °F 36% 29.71 in - South 24.2 mph 43.7 mph N/A   Clear
10:00 PM 73.4 °F 44.6 °F 36% 29.74 in - South 23.0 mph 42.6 mph N/A   Clear
10:30 PM 71.6 °F 44.6 °F 38% 29.77 in - South 20.7 mph 34.5 mph N/A   Clear
11:00 PM 71.6 °F 44.6 °F 38% 29.74 in - SSE 18.4 mph 29.9 mph N/A   Clear
11:30 PM 71.6 °F 46.4 °F 41% 29.74 in - South 20.7 mph 35.7 mph N/A   Clear